owner,sensor,date,latitude,longitude,air_temperature,qcFlag 
COMPS,ioos:station:USF.COMPS:FHP:1,2014-01-01T00:00:00Z,28.1530,-82.8010,17.64,1111122 
COMPS,ioos:station:USF.COMPS:FHP:1,2014-01-01T00:06:00Z,28.1530,-82.8010,17.61,1111122 
COMPS,ioos:station:USF.COMPS:FHP:1,2014-01-01T00:12:00Z,28.1530,-82.8010,17.66,1111122 
COMPS,ioos:station:USF.COMPS:FHP:1,2014-01-01T00:18:00Z,28.1530,-82.8010,17.69,1111122 
COMPS,ioos:station:USF.COMPS:FHP:1,2014-01-01T00:24:00Z,28.1530,-82.8010,17.66,1111122 
COMPS,ioos:station:USF.COMPS:FHP:1,2014-01-01T00:30:00Z,28.1530,-82.8010,17.65,1111122 
COMPS,ioos:station:USF.COMPS:FHP:1,2014-01-01T00:36:00Z,28.1530,-82.8010,17.64,1111122 
COMPS,ioos:station:USF.COMPS:FHP:1,2014-01-01T00:42:00Z,28.1530,-82.8010,17.62,1111122 
COMPS,ioos:station:USF.COMPS:FHP:1,2014-01-01T00:48:00Z,28.1530,-82.8010,17.66,1111122 
COMPS,ioos:station:USF.COMPS:FHP:1,2014-01-01T00:54:00Z,28.1530,-82.8010,17.67,1111122 
COMPS,ioos:station:USF.COMPS:FHP:1,2014-01-01T01:00:00Z,28.1530,-82.8010,17.71,1111122 
COMPS,ioos:station:USF.COMPS:FHP:1,2014-01-01T01:06:00Z,28.1530,-82.8010,17.76,1111122 
COMPS,ioos:station:USF.COMPS:FHP:1,2014-01-01T01:12:00Z,28.1530,-82.8010,17.74,1111122 
COMPS,ioos:station:USF.COMPS:FHP:1,2014-01-01T01:18:00Z,28.1530,-82.8010,17.72,1111122 
COMPS,ioos:station:USF.COMPS:FHP:1,2014-01-01T01:24:00Z,28.1530,-82.8010,17.72,1111122 
COMPS,ioos:station:USF.COMPS:FHP:1,2014-01-01T01:30:00Z,28.1530,-82.8010,17.66,1111122 
COMPS,ioos:station:USF.COMPS:FHP:1,2014-01-01T01:36:00Z,28.1530,-82.8010,17.64,1111122 
COMPS,ioos:station:USF.COMPS:FHP:1,2014-01-01T01:42:00Z,28.1530,-82.8010,17.64,1111122 
COMPS,ioos:station:USF.COMPS:FHP:1,2014-01-01T01:48:00Z,28.1530,-82.8010,17.57,1111122 
COMPS,ioos:station:USF.COMPS:FHP:1,2014-01-01T01:54:00Z,28.1530,-82.8010,17.52,1111122 
COMPS,ioos:station:USF.COMPS:FHP:1,2014-01-01T02:00:00Z,28.1530,-82.8010,17.51,1111122 
COMPS,ioos:station:USF.COMPS:FHP:1,2014-01-01T02:06:00Z,28.1530,-82.8010,17.45,1111122 
COMPS,ioos:station:USF.COMPS:FHP:1,2014-01-01T02:12:00Z,28.1530,-82.8010,17.39,1111122 
COMPS,ioos:station:USF.COMPS:FHP:1,2014-01-01T02:18:00Z,28.1530,-82.8010,17.38,1111122 
COMPS,ioos:station:USF.COMPS:FHP:1,2014-01-01T02:24:00Z,28.1530,-82.8010,17.31,1111122 
COMPS,ioos:station:USF.COMPS:FHP:1,2014-01-01T02:30:00Z,28.1530,-82.8010,17.28,1111122 
COMPS,ioos:station:USF.COMPS:FHP:1,2014-01-01T02:36:00Z,28.1530,-82.8010,17.26,1111122 
COMPS,ioos:station:USF.COMPS:FHP:1,2014-01-01T02:42:00Z,28.1530,-82.8010,17.25,1111122 
COMPS,ioos:station:USF.COMPS:FHP:1,2014-01-01T02:48:00Z,28.1530,-82.8010,17.25,1111122 
COMPS,ioos:station:USF.COMPS:FHP:1,2014-01-01T02:54:00Z,28.1530,-82.8010,17.2,1111122 
COMPS,ioos:station:USF.COMPS:FHP:1,2014-01-01T03:00:00Z,28.1530,-82.8010,17.11,1111122 
COMPS,ioos:station:USF.COMPS:FHP:1,2014-01-01T03:06:00Z,28.1530,-82.8010,17.16,1111122 
COMPS,ioos:station:USF.COMPS:FHP:1,2014-01-01T03:12:00Z,28.1530,-82.8010,17.12,1111122 
COMPS,ioos:station:USF.COMPS:FHP:1,2014-01-01T03:18:00Z,28.1530,-82.8010,17.12,1111122 
COMPS,ioos:station:USF.COMPS:FHP:1,2014-01-01T03:24:00Z,28.1530,-82.8010,17.07,1111122 
COMPS,ioos:station:USF.COMPS:FHP:1,2014-01-01T03:30:00Z,28.1530,-82.8010,17.01,1111122 
COMPS,ioos:station:USF.COMPS:FHP:1,2014-01-01T03:36:00Z,28.1530,-82.8010,16.96,1111122 
COMPS,ioos:station:USF.COMPS:FHP:1,2014-01-01T03:42:00Z,28.1530,-82.8010,16.87,1111122 
COMPS,ioos:station:USF.COMPS:FHP:1,2014-01-01T03:48:00Z,28.1530,-82.8010,16.84,1111122 
COMPS,ioos:station:USF.COMPS:FHP:1,2014-01-01T03:54:00Z,28.1530,-82.8010,16.74,1111122 
COMPS,ioos:station:USF.COMPS:FHP:1,2014-01-01T04:00:00Z,28.1530,-82.8010,16.63,1111122 
COMPS,ioos:station:USF.COMPS:FHP:1,2014-01-01T04:06:00Z,28.1530,-82.8010,16.53,1111122 
COMPS,ioos:station:USF.COMPS:FHP:1,2014-01-01T04:12:00Z,28.1530,-82.8010,16.52,1111122 
COMPS,ioos:station:USF.COMPS:FHP:1,2014-01-01T04:18:00Z,28.1530,-82.8010,16.46,1111122 
COMPS,ioos:station:USF.COMPS:FHP:1,2014-01-01T04:24:00Z,28.1530,-82.8010,16.44,1111122 
COMPS,ioos:station:USF.COMPS:FHP:1,2014-01-01T04:30:00Z,28.1530,-82.8010,16.4,1111122 
COMPS,ioos:station:USF.COMPS:FHP:1,2014-01-01T04:36:00Z,28.1530,-82.8010,16.34,1111122 
COMPS,ioos:station:USF.COMPS:FHP:1,2014-01-01T04:42:00Z,28.1530,-82.8010,16.32,1111122 
COMPS,ioos:station:USF.COMPS:FHP:1,2014-01-01T04:48:00Z,28.1530,-82.8010,16.25,1111122 
COMPS,ioos:station:USF.COMPS:FHP:1,2014-01-01T04:54:00Z,28.1530,-82.8010,16.2,1111122 
COMPS,ioos:station:USF.COMPS:FHP:1,2014-01-01T05:00:00Z,28.1530,-82.8010,16.18,1111122 
COMPS,ioos:station:USF.COMPS:FHP:1,2014-01-01T05:06:00Z,28.1530,-82.8010,16.16,1111122 
COMPS,ioos:station:USF.COMPS:FHP:1,2014-01-01T05:12:00Z,28.1530,-82.8010,16.11,1111122 
COMPS,ioos:station:USF.COMPS:FHP:1,2014-01-01T05:18:00Z,28.1530,-82.8010,16.09,1111122 
COMPS,ioos:station:USF.COMPS:FHP:1,2014-01-01T05:24:00Z,28.1530,-82.8010,16.05,1111122 
COMPS,ioos:station:USF.COMPS:FHP:1,2014-01-01T05:30:00Z,28.1530,-82.8010,16.05,1111122 
COMPS,ioos:station:USF.COMPS:FHP:1,2014-01-01T05:36:00Z,28.1530,-82.8010,15.95,1111122 
COMPS,ioos:station:USF.COMPS:FHP:1,2014-01-01T05:42:00Z,28.1530,-82.8010,15.93,1111122 
COMPS,ioos:station:USF.COMPS:FHP:1,2014-01-01T05:48:00Z,28.1530,-82.8010,15.92,1111122 
COMPS,ioos:station:USF.COMPS:FHP:1,2014-01-01T05:54:00Z,28.1530,-82.8010,15.83,1111122 
COMPS,ioos:station:USF.COMPS:FHP:1,2014-01-01T06:00:00Z,28.1530,-82.8010,15.81,1111122 
COMPS,ioos:station:USF.COMPS:FHP:1,2014-01-01T06:06:00Z,28.1530,-82.8010,15.79,1111122 
COMPS,ioos:station:USF.COMPS:FHP:1,2014-01-01T06:12:00Z,28.1530,-82.8010,15.75,1111122 
COMPS,ioos:station:USF.COMPS:FHP:1,2014-01-01T06:18:00Z,28.1530,-82.8010,15.72,1111122 
COMPS,ioos:station:USF.COMPS:FHP:1,2014-01-01T06:24:00Z,28.1530,-82.8010,15.71,1111122 
COMPS,ioos:station:USF.COMPS:FHP:1,2014-01-01T06:30:00Z,28.1530,-82.8010,15.73,1111122 
COMPS,ioos:station:USF.COMPS:FHP:1,2014-01-01T06:36:00Z,28.1530,-82.8010,15.68,1111122 
COMPS,ioos:station:USF.COMPS:FHP:1,2014-01-01T06:42:00Z,28.1530,-82.8010,15.62,1111122 
COMPS,ioos:station:USF.COMPS:FHP:1,2014-01-01T06:48:00Z,28.1530,-82.8010,15.6,1111122 
COMPS,ioos:station:USF.COMPS:FHP:1,2014-01-01T06:54:00Z,28.1530,-82.8010,15.53,1111122 
COMPS,ioos:station:USF.COMPS:FHP:1,2014-01-01T07:00:00Z,28.1530,-82.8010,15.42,1111122 
COMPS,ioos:station:USF.COMPS:FHP:1,2014-01-01T07:06:00Z,28.1530,-82.8010,15.28,1111122 
COMPS,ioos:station:USF.COMPS:FHP:1,2014-01-01T07:12:00Z,28.1530,-82.8010,15.29,1111122 
COMPS,ioos:station:USF.COMPS:FHP:1,2014-01-01T07:18:00Z,28.1530,-82.8010,15.24,1111122 
COMPS,ioos:station:USF.COMPS:FHP:1,2014-01-01T07:24:00Z,28.1530,-82.8010,15.22,1111122 
COMPS,ioos:station:USF.COMPS:FHP:1,2014-01-01T07:30:00Z,28.1530,-82.8010,15.14,1111122 
COMPS,ioos:station:USF.COMPS:FHP:1,2014-01-01T07:36:00Z,28.1530,-82.8010,15.07,1111122 
COMPS,ioos:station:USF.COMPS:FHP:1,2014-01-01T07:42:00Z,28.1530,-82.8010,15.08,1111122 
COMPS,ioos:station:USF.COMPS:FHP:1,2014-01-01T07:48:00Z,28.1530,-82.8010,15.08,1111122 
COMPS,ioos:station:USF.COMPS:FHP:1,2014-01-01T07:54:00Z,28.1530,-82.8010,15.05,1111122 
COMPS,ioos:station:USF.COMPS:FHP:1,2014-01-01T08:00:00Z,28.1530,-82.8010,15.03,1111122 
COMPS,ioos:station:USF.COMPS:FHP:1,2014-01-01T08:06:00Z,28.1530,-82.8010,14.92,1111122 
COMPS,ioos:station:USF.COMPS:FHP:1,2014-01-01T08:12:00Z,28.1530,-82.8010,14.83,1111122 
COMPS,ioos:station:USF.COMPS:FHP:1,2014-01-01T08:18:00Z,28.1530,-82.8010,14.7,1111122 
COMPS,ioos:station:USF.COMPS:FHP:1,2014-01-01T08:24:00Z,28.1530,-82.8010,14.71,1111122 
COMPS,ioos:station:USF.COMPS:FHP:1,2014-01-01T08:30:00Z,28.1530,-82.8010,14.67,1111122 
COMPS,ioos:station:USF.COMPS:FHP:1,2014-01-01T08:36:00Z,28.1530,-82.8010,14.66,1111122 
COMPS,ioos:station:USF.COMPS:FHP:1,2014-01-01T08:42:00Z,28.1530,-82.8010,14.68,1111122 
COMPS,ioos:station:USF.COMPS:FHP:1,2014-01-01T08:48:00Z,28.1530,-82.8010,14.59,1111122 
COMPS,ioos:station:USF.COMPS:FHP:1,2014-01-01T08:54:00Z,28.1530,-82.8010,14.53,1111122 
COMPS,ioos:station:USF.COMPS:FHP:1,2014-01-01T09:00:00Z,28.1530,-82.8010,14.43,1111122 
COMPS,ioos:station:USF.COMPS:FHP:1,2014-01-01T09:06:00Z,28.1530,-82.8010,14.53,1111122 
COMPS,ioos:station:USF.COMPS:FHP:1,2014-01-01T09:12:00Z,28.1530,-82.8010,14.59,1111122 
COMPS,ioos:station:USF.COMPS:FHP:1,2014-01-01T09:18:00Z,28.1530,-82.8010,14.59,1111122 
COMPS,ioos:station:USF.COMPS:FHP:1,2014-01-01T09:24:00Z,28.1530,-82.8010,14.6,1111122 
COMPS,ioos:station:USF.COMPS:FHP:1,2014-01-01T09:30:00Z,28.1530,-82.8010,14.53,1111122 
COMPS,ioos:station:USF.COMPS:FHP:1,2014-01-01T09:36:00Z,28.1530,-82.8010,14.46,1111122 
COMPS,ioos:station:USF.COMPS:FHP:1,2014-01-01T09:42:00Z,28.1530,-82.8010,14.38,1111122 
COMPS,ioos:station:USF.COMPS:FHP:1,2014-01-01T09:48:00Z,28.1530,-82.8010,14.27,1111122 
COMPS,ioos:station:USF.COMPS:FHP:1,2014-01-01T09:54:00Z,28.1530,-82.8010,14.23,1111122 
COMPS,ioos:station:USF.COMPS:FHP:1,2014-01-01T10:00:00Z,28.1530,-82.8010,14.17,1111122 
COMPS,ioos:station:USF.COMPS:FHP:1,2014-01-01T10:06:00Z,28.1530,-82.8010,14.25,1111122 
COMPS,ioos:station:USF.COMPS:FHP:1,2014-01-01T10:12:00Z,28.1530,-82.8010,14.25,1111122 
COMPS,ioos:station:USF.COMPS:FHP:1,2014-01-01T10:18:00Z,28.1530,-82.8010,14.25,1111122 
COMPS,ioos:station:USF.COMPS:FHP:1,2014-01-01T10:24:00Z,28.1530,-82.8010,14.24,1111122 
COMPS,ioos:station:USF.COMPS:FHP:1,2014-01-01T10:30:00Z,28.1530,-82.8010,14.24,1111122 
COMPS,ioos:station:USF.COMPS:FHP:1,2014-01-01T10:36:00Z,28.1530,-82.8010,14.25,1111122 
COMPS,ioos:station:USF.COMPS:FHP:1,2014-01-01T10:42:00Z,28.1530,-82.8010,14.22,1111122 
COMPS,ioos:station:USF.COMPS:FHP:1,2014-01-01T10:48:00Z,28.1530,-82.8010,14.11,1111122 
COMPS,ioos:station:USF.COMPS:FHP:1,2014-01-01T10:54:00Z,28.1530,-82.8010,14.16,1111122 
COMPS,ioos:station:USF.COMPS:FHP:1,2014-01-01T11:00:00Z,28.1530,-82.8010,14.15,1111122 
COMPS,ioos:station:USF.COMPS:FHP:1,2014-01-01T11:06:00Z,28.1530,-82.8010,14.22,1111122 
COMPS,ioos:station:USF.COMPS:FHP:1,2014-01-01T11:12:00Z,28.1530,-82.8010,14.24,1111122 
COMPS,ioos:station:USF.COMPS:FHP:1,2014-01-01T11:18:00Z,28.1530,-82.8010,14.27,1111122 
COMPS,ioos:station:USF.COMPS:FHP:1,2014-01-01T11:24:00Z,28.1530,-82.8010,14.33,1111122 
COMPS,ioos:station:USF.COMPS:FHP:1,2014-01-01T11:30:00Z,28.1530,-82.8010,14.29,1111122 
COMPS,ioos:station:USF.COMPS:FHP:1,2014-01-01T11:36:00Z,28.1530,-82.8010,14.22,1111122 
COMPS,ioos:station:USF.COMPS:FHP:1,2014-01-01T11:42:00Z,28.1530,-82.8010,14.18,1111122 
COMPS,ioos:station:USF.COMPS:FHP:1,2014-01-01T11:48:00Z,28.1530,-82.8010,14.12,1111122 
COMPS,ioos:station:USF.COMPS:FHP:1,2014-01-01T11:54:00Z,28.1530,-82.8010,14.07,1111122 
COMPS,ioos:station:USF.COMPS:FHP:1,2014-01-01T12:00:00Z,28.1530,-82.8010,14.07,1111122 
COMPS,ioos:station:USF.COMPS:FHP:1,2014-01-01T12:06:00Z,28.1530,-82.8010,14.01,1111122 
COMPS,ioos:station:USF.COMPS:FHP:1,2014-01-01T12:12:00Z,28.1530,-82.8010,13.99,1111122 
COMPS,ioos:station:USF.COMPS:FHP:1,2014-01-01T12:18:00Z,28.1530,-82.8010,13.99,1111122 
COMPS,ioos:station:USF.COMPS:FHP:1,2014-01-01T12:24:00Z,28.1530,-82.8010,13.99,1111122 
COMPS,ioos:station:USF.COMPS:FHP:1,2014-01-01T12:30:00Z,28.1530,-82.8010,13.98,1111122 
COMPS,ioos:station:USF.COMPS:FHP:1,2014-01-01T12:36:00Z,28.1530,-82.8010,13.96,1111122 
COMPS,ioos:station:USF.COMPS:FHP:1,2014-01-01T12:42:00Z,28.1530,-82.8010,13.97,1111122 
COMPS,ioos:station:USF.COMPS:FHP:1,2014-01-01T12:48:00Z,28.1530,-82.8010,14.01,1111122 
COMPS,ioos:station:USF.COMPS:FHP:1,2014-01-01T12:54:00Z,28.1530,-82.8010,14.04,1111122 
COMPS,ioos:station:USF.COMPS:FHP:1,2014-01-01T13:00:00Z,28.1530,-82.8010,14.06,1111122 
COMPS,ioos:station:USF.COMPS:FHP:1,2014-01-01T13:06:00Z,28.1530,-82.8010,14.11,1111122 
COMPS,ioos:station:USF.COMPS:FHP:1,2014-01-01T13:12:00Z,28.1530,-82.8010,14.18,1111122 
COMPS,ioos:station:USF.COMPS:FHP:1,2014-01-01T13:18:00Z,28.1530,-82.8010,14.17,1111122 
COMPS,ioos:station:USF.COMPS:FHP:1,2014-01-01T13:24:00Z,28.1530,-82.8010,14.26,1111122 
COMPS,ioos:station:USF.COMPS:FHP:1,2014-01-01T13:30:00Z,28.1530,-82.8010,14.26,1111122 
COMPS,ioos:station:USF.COMPS:FHP:1,2014-01-01T13:36:00Z,28.1530,-82.8010,14.34,1111122 
COMPS,ioos:station:USF.COMPS:FHP:1,2014-01-01T13:42:00Z,28.1530,-82.8010,14.4,1111122 
COMPS,ioos:station:USF.COMPS:FHP:1,2014-01-01T13:48:00Z,28.1530,-82.8010,14.45,1111122 
COMPS,ioos:station:USF.COMPS:FHP:1,2014-01-01T13:54:00Z,28.1530,-82.8010,14.52,1111122 
COMPS,ioos:station:USF.COMPS:FHP:1,2014-01-01T14:00:00Z,28.1530,-82.8010,14.61,1111122 
COMPS,ioos:station:USF.COMPS:FHP:1,2014-01-01T14:06:00Z,28.1530,-82.8010,14.69,1111122 
COMPS,ioos:station:USF.COMPS:FHP:1,2014-01-01T14:12:00Z,28.1530,-82.8010,14.76,1111122 
COMPS,ioos:station:USF.COMPS:FHP:1,2014-01-01T14:18:00Z,28.1530,-82.8010,14.82,1111122 
COMPS,ioos:station:USF.COMPS:FHP:1,2014-01-01T14:24:00Z,28.1530,-82.8010,14.97,1111122 
COMPS,ioos:station:USF.COMPS:FHP:1,2014-01-01T14:30:00Z,28.1530,-82.8010,15.07,1111122 
COMPS,ioos:station:USF.COMPS:FHP:1,2014-01-01T14:36:00Z,28.1530,-82.8010,15.22,1111122 
COMPS,ioos:station:USF.COMPS:FHP:1,2014-01-01T14:42:00Z,28.1530,-82.8010,15.35,1111122 
COMPS,ioos:station:USF.COMPS:FHP:1,2014-01-01T14:48:00Z,28.1530,-82.8010,15.52,1111122 
COMPS,ioos:station:USF.COMPS:FHP:1,2014-01-01T14:54:00Z,28.1530,-82.8010,15.67,1111122 
COMPS,ioos:station:USF.COMPS:FHP:1,2014-01-01T15:00:00Z,28.1530,-82.8010,15.84,1111122 
COMPS,ioos:station:USF.COMPS:FHP:1,2014-01-01T15:06:00Z,28.1530,-82.8010,15.82,1111122 
COMPS,ioos:station:USF.COMPS:FHP:1,2014-01-01T15:12:00Z,28.1530,-82.8010,15.83,1111122 
COMPS,ioos:station:USF.COMPS:FHP:1,2014-01-01T15:18:00Z,28.1530,-82.8010,15.92,1111122 
COMPS,ioos:station:USF.COMPS:FHP:1,2014-01-01T15:24:00Z,28.1530,-82.8010,16.03,1111122 
COMPS,ioos:station:USF.COMPS:FHP:1,2014-01-01T15:30:00Z,28.1530,-82.8010,16.04,1111122 
COMPS,ioos:station:USF.COMPS:FHP:1,2014-01-01T15:36:00Z,28.1530,-82.8010,16.1,1111122 
COMPS,ioos:station:USF.COMPS:FHP:1,2014-01-01T15:42:00Z,28.1530,-82.8010,16.12,1111122 
COMPS,ioos:station:USF.COMPS:FHP:1,2014-01-01T15:48:00Z,28.1530,-82.8010,16.08,1111122 
COMPS,ioos:station:USF.COMPS:FHP:1,2014-01-01T15:54:00Z,28.1530,-82.8010,16.03,1111122 
COMPS,ioos:station:USF.COMPS:FHP:1,2014-01-01T16:00:00Z,28.1530,-82.8010,15.88,1111122 
COMPS,ioos:station:USF.COMPS:FHP:1,2014-01-01T16:06:00Z,28.1530,-82.8010,15.75,1111122 
COMPS,ioos:station:USF.COMPS:FHP:1,2014-01-01T16:12:00Z,28.1530,-82.8010,15.61,1111122 
COMPS,ioos:station:USF.COMPS:FHP:1,2014-01-01T16:18:00Z,28.1530,-82.8010,15.52,1111122 
COMPS,ioos:station:USF.COMPS:FHP:1,2014-01-01T16:24:00Z,28.1530,-82.8010,15.41,1111122 
COMPS,ioos:station:USF.COMPS:FHP:1,2014-01-01T16:30:00Z,28.1530,-82.8010,15.35,1111122 
COMPS,ioos:station:USF.COMPS:FHP:1,2014-01-01T16:36:00Z,28.1530,-82.8010,15.27,1111122 
COMPS,ioos:station:USF.COMPS:FHP:1,2014-01-01T16:42:00Z,28.1530,-82.8010,15.22,1111122 
COMPS,ioos:station:USF.COMPS:FHP:1,2014-01-01T16:48:00Z,28.1530,-82.8010,15.16,1111122 
COMPS,ioos:station:USF.COMPS:FHP:1,2014-01-01T16:54:00Z,28.1530,-82.8010,15.08,1111122 
COMPS,ioos:station:USF.COMPS:FHP:1,2014-01-01T17:00:00Z,28.1530,-82.8010,15.02,1111122 
COMPS,ioos:station:USF.COMPS:FHP:1,2014-01-01T17:06:00Z,28.1530,-82.8010,15.16,1111122 
COMPS,ioos:station:USF.COMPS:FHP:1,2014-01-01T17:12:00Z,28.1530,-82.8010,15.18,1111122 
COMPS,ioos:station:USF.COMPS:FHP:1,2014-01-01T17:18:00Z,28.1530,-82.8010,15.18,1111122 
COMPS,ioos:station:USF.COMPS:FHP:1,2014-01-01T17:24:00Z,28.1530,-82.8010,15.2,1111122 
COMPS,ioos:station:USF.COMPS:FHP:1,2014-01-01T17:30:00Z,28.1530,-82.8010,15.27,1111122 
COMPS,ioos:station:USF.COMPS:FHP:1,2014-01-01T17:36:00Z,28.1530,-82.8010,15.37,1111122 
COMPS,ioos:station:USF.COMPS:FHP:1,2014-01-01T17:42:00Z,28.1530,-82.8010,15.43,1111122 
COMPS,ioos:station:USF.COMPS:FHP:1,2014-01-01T17:48:00Z,28.1530,-82.8010,15.55,1111122 
COMPS,ioos:station:USF.COMPS:FHP:1,2014-01-01T17:54:00Z,28.1530,-82.8010,15.54,1111122 
COMPS,ioos:station:USF.COMPS:FHP:1,2014-01-01T18:00:00Z,28.1530,-82.8010,15.59,1111122 
COMPS,ioos:station:USF.COMPS:FHP:1,2014-01-01T18:06:00Z,28.1530,-82.8010,15.65,1111122 
COMPS,ioos:station:USF.COMPS:FHP:1,2014-01-01T18:12:00Z,28.1530,-82.8010,15.66,1111122 
COMPS,ioos:station:USF.COMPS:FHP:1,2014-01-01T18:18:00Z,28.1530,-82.8010,15.7,1111122 
COMPS,ioos:station:USF.COMPS:FHP:1,2014-01-01T18:24:00Z,28.1530,-82.8010,15.71,1111122 
COMPS,ioos:station:USF.COMPS:FHP:1,2014-01-01T18:30:00Z,28.1530,-82.8010,15.75,1111122 
COMPS,ioos:station:USF.COMPS:FHP:1,2014-01-01T18:36:00Z,28.1530,-82.8010,15.76,1111122 
COMPS,ioos:station:USF.COMPS:FHP:1,2014-01-01T18:42:00Z,28.1530,-82.8010,15.79,1111122 
COMPS,ioos:station:USF.COMPS:FHP:1,2014-01-01T18:48:00Z,28.1530,-82.8010,15.79,1111122 
COMPS,ioos:station:USF.COMPS:FHP:1,2014-01-01T18:54:00Z,28.1530,-82.8010,15.85,1111122 
COMPS,ioos:station:USF.COMPS:FHP:1,2014-01-01T19:00:00Z,28.1530,-82.8010,15.79,1111122 
COMPS,ioos:station:USF.COMPS:FHP:1,2014-01-01T19:06:00Z,28.1530,-82.8010,15.78,1111122 
COMPS,ioos:station:USF.COMPS:FHP:1,2014-01-01T19:12:00Z,28.1530,-82.8010,15.78,1111122 
COMPS,ioos:station:USF.COMPS:FHP:1,2014-01-01T19:18:00Z,28.1530,-82.8010,15.82,1111122 
COMPS,ioos:station:USF.COMPS:FHP:1,2014-01-01T19:24:00Z,28.1530,-82.8010,15.88,1111122 
COMPS,ioos:station:USF.COMPS:FHP:1,2014-01-01T19:30:00Z,28.1530,-82.8010,15.92,1111122 
COMPS,ioos:station:USF.COMPS:FHP:1,2014-01-01T19:36:00Z,28.1530,-82.8010,15.97,1111122 
COMPS,ioos:station:USF.COMPS:FHP:1,2014-01-01T19:42:00Z,28.1530,-82.8010,15.98,1111122 
COMPS,ioos:station:USF.COMPS:FHP:1,2014-01-01T19:48:00Z,28.1530,-82.8010,16.07,1111122 
COMPS,ioos:station:USF.COMPS:FHP:1,2014-01-01T19:54:00Z,28.1530,-82.8010,16.14,1111122 
COMPS,ioos:station:USF.COMPS:FHP:1,2014-01-01T20:00:00Z,28.1530,-82.8010,16.17,1111122 
COMPS,ioos:station:USF.COMPS:FHP:1,2014-01-01T20:06:00Z,28.1530,-82.8010,16.18,1111122 
COMPS,ioos:station:USF.COMPS:FHP:1,2014-01-01T20:12:00Z,28.1530,-82.8010,16.2,1111122 
COMPS,ioos:station:USF.COMPS:FHP:1,2014-01-01T20:18:00Z,28.1530,-82.8010,16.21,1111122 
COMPS,ioos:station:USF.COMPS:FHP:1,2014-01-01T20:24:00Z,28.1530,-82.8010,16.21,1111122 
COMPS,ioos:station:USF.COMPS:FHP:1,2014-01-01T20:30:00Z,28.1530,-82.8010,16.23,1111122 
COMPS,ioos:station:USF.COMPS:FHP:1,2014-01-01T20:36:00Z,28.1530,-82.8010,16.21,1111122 
COMPS,ioos:station:USF.COMPS:FHP:1,2014-01-01T20:42:00Z,28.1530,-82.8010,16.22,1111122 
COMPS,ioos:station:USF.COMPS:FHP:1,2014-01-01T20:48:00Z,28.1530,-82.8010,16.27,1111122 
COMPS,ioos:station:USF.COMPS:FHP:1,2014-01-01T20:54:00Z,28.1530,-82.8010,16.31,1111122 
COMPS,ioos:station:USF.COMPS:FHP:1,2014-01-01T21:00:00Z,28.1530,-82.8010,16.32,1111122 
COMPS,ioos:station:USF.COMPS:FHP:1,2014-01-01T21:06:00Z,28.1530,-82.8010,16.35,1111122 
COMPS,ioos:station:USF.COMPS:FHP:1,2014-01-01T21:12:00Z,28.1530,-82.8010,16.35,1111122 
COMPS,ioos:station:USF.COMPS:FHP:1,2014-01-01T21:18:00Z,28.1530,-82.8010,16.37,1111122 
COMPS,ioos:station:USF.COMPS:FHP:1,2014-01-01T21:24:00Z,28.1530,-82.8010,16.41,1111122 
COMPS,ioos:station:USF.COMPS:FHP:1,2014-01-01T21:30:00Z,28.1530,-82.8010,16.45,1111122 
COMPS,ioos:station:USF.COMPS:FHP:1,2014-01-01T21:36:00Z,28.1530,-82.8010,16.45,1111122 
COMPS,ioos:station:USF.COMPS:FHP:1,2014-01-01T21:42:00Z,28.1530,-82.8010,16.47,1111122 
COMPS,ioos:station:USF.COMPS:FHP:1,2014-01-01T21:48:00Z,28.1530,-82.8010,16.51,1111122 
COMPS,ioos:station:USF.COMPS:FHP:1,2014-01-01T21:54:00Z,28.1530,-82.8010,16.59,1111122 
COMPS,ioos:station:USF.COMPS:FHP:1,2014-01-01T22:00:00Z,28.1530,-82.8010,16.59,1111122 
COMPS,ioos:station:USF.COMPS:FHP:1,2014-01-01T22:06:00Z,28.1530,-82.8010,16.59,1111122 
COMPS,ioos:station:USF.COMPS:FHP:1,2014-01-01T22:12:00Z,28.1530,-82.8010,16.6,1111122 
COMPS,ioos:station:USF.COMPS:FHP:1,2014-01-01T22:18:00Z,28.1530,-82.8010,16.63,1111122 
COMPS,ioos:station:USF.COMPS:FHP:1,2014-01-01T22:24:00Z,28.1530,-82.8010,16.65,1111122 
COMPS,ioos:station:USF.COMPS:FHP:1,2014-01-01T22:30:00Z,28.1530,-82.8010,16.73,1111122 
COMPS,ioos:station:USF.COMPS:FHP:1,2014-01-01T22:36:00Z,28.1530,-82.8010,16.67,1111122 
COMPS,ioos:station:USF.COMPS:FHP:1,2014-01-01T22:42:00Z,28.1530,-82.8010,16.63,1111122 
COMPS,ioos:station:USF.COMPS:FHP:1,2014-01-01T22:48:00Z,28.1530,-82.8010,16.7,1111122 
COMPS,ioos:station:USF.COMPS:FHP:1,2014-01-01T22:54:00Z,28.1530,-82.8010,16.67,1111122 
COMPS,ioos:station:USF.COMPS:FHP:1,2014-01-01T23:00:00Z,28.1530,-82.8010,16.71,1111122 
COMPS,ioos:station:USF.COMPS:FHP:1,2014-01-01T23:06:00Z,28.1530,-82.8010,16.73,1111122 
COMPS,ioos:station:USF.COMPS:FHP:1,2014-01-01T23:12:00Z,28.1530,-82.8010,16.7,1111122 
COMPS,ioos:station:USF.COMPS:FHP:1,2014-01-01T23:18:00Z,28.1530,-82.8010,16.71,1111122 
COMPS,ioos:station:USF.COMPS:FHP:1,2014-01-01T23:24:00Z,28.1530,-82.8010,16.73,1111122 
COMPS,ioos:station:USF.COMPS:FHP:1,2014-01-01T23:30:00Z,28.1530,-82.8010,16.73,1111122 
COMPS,ioos:station:USF.COMPS:FHP:1,2014-01-01T23:36:00Z,28.1530,-82.8010,16.72,1111122 
COMPS,ioos:station:USF.COMPS:FHP:1,2014-01-01T23:42:00Z,28.1530,-82.8010,16.73,1111122 
COMPS,ioos:station:USF.COMPS:FHP:1,2014-01-01T23:48:00Z,28.1530,-82.8010,16.73,1111122 
COMPS,ioos:station:USF.COMPS:FHP:1,2014-01-01T23:54:00Z,28.1530,-82.8010,16.76,1111122 
COMPS,ioos:station:USF.COMPS:FHP:1,2014-01-02T00:00:00Z,28.1530,-82.8010,16.73,1111122 
COMPS,ioos:station:USF.COMPS:FHP:1,2014-01-02T00:06:00Z,28.1530,-82.8010,16.79,1111122 
COMPS,ioos:station:USF.COMPS:FHP:1,2014-01-02T00:12:00Z,28.1530,-82.8010,16.76,1111122 
COMPS,ioos:station:USF.COMPS:FHP:1,2014-01-02T00:18:00Z,28.1530,-82.8010,16.79,1111122 
COMPS,ioos:station:USF.COMPS:FHP:1,2014-01-02T00:24:00Z,28.1530,-82.8010,16.81,1111122 
COMPS,ioos:station:USF.COMPS:FHP:1,2014-01-02T00:30:00Z,28.1530,-82.8010,16.79,1111122 
COMPS,ioos:station:USF.COMPS:FHP:1,2014-01-02T00:36:00Z,28.1530,-82.8010,16.73,1111122 
COMPS,ioos:station:USF.COMPS:FHP:1,2014-01-02T00:42:00Z,28.1530,-82.8010,16.73,1111122 
COMPS,ioos:station:USF.COMPS:FHP:1,2014-01-02T00:48:00Z,28.1530,-82.8010,16.71,1111122 
COMPS,ioos:station:USF.COMPS:FHP:1,2014-01-02T00:54:00Z,28.1530,-82.8010,16.65,1111122 
COMPS,ioos:station:USF.COMPS:FHP:1,2014-01-02T01:00:00Z,28.1530,-82.8010,16.68,1111122 
COMPS,ioos:station:USF.COMPS:FHP:1,2014-01-02T01:06:00Z,28.1530,-82.8010,16.62,1111122 
COMPS,ioos:station:USF.COMPS:FHP:1,2014-01-02T01:12:00Z,28.1530,-82.8010,16.62,1111122 
COMPS,ioos:station:USF.COMPS:FHP:1,2014-01-02T01:18:00Z,28.1530,-82.8010,16.6,1111122 
COMPS,ioos:station:USF.COMPS:FHP:1,2014-01-02T01:24:00Z,28.1530,-82.8010,16.61,1111122 
COMPS,ioos:station:USF.COMPS:FHP:1,2014-01-02T01:30:00Z,28.1530,-82.8010,16.63,1111122 
COMPS,ioos:station:USF.COMPS:FHP:1,2014-01-02T01:36:00Z,28.1530,-82.8010,16.69,1111122 
COMPS,ioos:station:USF.COMPS:FHP:1,2014-01-02T01:42:00Z,28.1530,-82.8010,16.7,1111122 
COMPS,ioos:station:USF.COMPS:FHP:1,2014-01-02T01:48:00Z,28.1530,-82.8010,16.7,1111122 
COMPS,ioos:station:USF.COMPS:FHP:1,2014-01-02T01:54:00Z,28.1530,-82.8010,16.72,1111122 
COMPS,ioos:station:USF.COMPS:FHP:1,2014-01-02T02:00:00Z,28.1530,-82.8010,16.72,1111122 
COMPS,ioos:station:USF.COMPS:FHP:1,2014-01-02T02:06:00Z,28.1530,-82.8010,16.73,1111122 
COMPS,ioos:station:USF.COMPS:FHP:1,2014-01-02T02:12:00Z,28.1530,-82.8010,16.73,1111122 
COMPS,ioos:station:USF.COMPS:FHP:1,2014-01-02T02:18:00Z,28.1530,-82.8010,16.73,1111122 
COMPS,ioos:station:USF.COMPS:FHP:1,2014-01-02T02:24:00Z,28.1530,-82.8010,16.73,1111122 
COMPS,ioos:station:USF.COMPS:FHP:1,2014-01-02T02:30:00Z,28.1530,-82.8010,16.73,1111122 
COMPS,ioos:station:USF.COMPS:FHP:1,2014-01-02T02:36:00Z,28.1530,-82.8010,16.73,1111122 
COMPS,ioos:station:USF.COMPS:FHP:1,2014-01-02T02:42:00Z,28.1530,-82.8010,16.73,1111122 
COMPS,ioos:station:USF.COMPS:FHP:1,2014-01-02T02:48:00Z,28.1530,-82.8010,16.73,1111122 
COMPS,ioos:station:USF.COMPS:FHP:1,2014-01-02T02:54:00Z,28.1530,-82.8010,16.73,1111122 
COMPS,ioos:station:USF.COMPS:FHP:1,2014-01-02T03:00:00Z,28.1530,-82.8010,16.76,1111122 
COMPS,ioos:station:USF.COMPS:FHP:1,2014-01-02T03:06:00Z,28.1530,-82.8010,16.73,1111122 